Location: Unspecified
(0.0000°N, 0.0000°E)
Time: 11:20:13
(UTC+00:00)

Explorer 7 - Pass Details

Date: 20 November 2019
Orbit: 485 x 680 km, 50.3° (Epoch: 07 December)

Event Time Altitude Azimuth Distance (km) Brightness Sun altitude
Rises 19:41:24 0° 202° (SSW) 3,001 11.2 -27.1°
Reaches altitude 10° 19:43:53 10° 194° (SSW) 2,100 10.2 -27.7°
Enters shadow 19:46:24 26° 172° (S) 1,325 8.8 -28.2°
Maximum altitude 19:48:23 37° 127° (SE) 1,053 - -28.7°
Drops below altitude 10° 19:52:53 10° 60° (ENE) 2,101 - -29.7°
Sets 19:55:22 0° 52° (NE) 3,001 - -30.3°
